{"data":{"norad_id":65477,"intl_designator":"2025-195V","name":"STARLINK-35071","alt_names":[],"object_type":"PAYLOAD","status":"ACTIVE","operator":null,"country":"US","launch_date":"2025-09-03","launch_site_code":"AFETR","launch_vehicle":null,"mission":null,"orbit_class":"UNKNOWN","rcs_meters":null,"size_class":null,"mass_kg":null,"dimensions":null,"purposes":["comms"],"wikipedia_slug":null,"has_3d_model":false,"image_url":null,"decayed_at":null,"tle_current":{"epoch":"2026-09-20T22:04:10.559424Z","epoch_age_seconds":75649,"freshness":"FRESH","line1":"1 65477U 25195V   26263.91956666  .00015320  00000+0  46348-3 0  9996","line2":"2 65477  53.1595  67.8509 0003336  56.2486 303.8834 15.34408455 59912","mean_motion":15.34408455,"eccentricity":0.0003336,"inclination_deg":53.1595,"raan_deg":67.8509,"arg_perigee_deg":56.2486,"mean_anomaly_deg":303.8834,"bstar":0.00046348,"rev_number":5991,"period_min":93.847240955147,"perigee_km":460.3960143599,"apogee_km":464.96020620148,"semimajor_km":6840.8151102807,"source":"CELESTRAK","updated_at":"2026-09-21T09:00:35.638794Z"}}}